GNTO2: Elm Fork Red River HWY 6 nr Granite 5S

Data processed at Tue 04Oct2022 03:57 GMT


All information presented herein is the property of the government of the United States of America and may be revised or deleted at any time without prior notice.
Dissemination of this information without the expressed written consent of the Public Affairs Office, Tulsa District U.S. Army Corps of Engineers is strictly prohibited.
These data are gathered electronically and, as presented, have not undergone any form of quality control. These data are not guaranteed to be valid or correct.
Go to home page.
Go to station list.

Upstream stations:

Downstream station:
Previous Day
Next Day
Current Day


                            
SHEF ID:       GNTO2     Elm Fk Red Rvr HWY 6 nr Granite
STATION TYPE:  
Regulating: Stage =    14.00, Flow =     3000

               PRECIP     STAGE  RIV-FLOW   VOLTAGE  BAT-LOAD
                   in        ft       cfs      volt      volt
              Ccp-Rev   Ccp-Rev   Ccp-Rev   Ccp-Rev   Ccp-Rev
(US/Central)
10/03 00:00      0.00      5.18         2     12.89     12.73
10/03 01:00      0.00      5.19         2     12.81     12.73
10/03 02:00      0.00      5.18         2     12.81     12.73
10/03 03:00      0.00      5.19         2     12.81     12.65
10/03 04:00      0.00      5.19         2     12.81     12.65
10/03 05:00      0.00      5.19         2     12.73     12.65
10/03 06:00      0.00      5.19         2     12.73     12.65
10/03 07:00      0.00      5.19         2     12.73     12.57
10/03 08:00      0.00      5.19         2     12.73     12.57
10/03 09:00      0.00      5.19         2     13.37     12.97
10/03 10:00      0.00      5.20         2     13.44     13.68
10/03 11:00      0.00      5.21         2     13.37     13.37
10/03 12:00      0.00      5.21         2     13.37     13.44
10/03 13:00      0.00      5.21         2     13.44     13.44
10/03 14:00      0.00      5.21         2     13.37     13.53
10/03 15:00      0.00      5.21         2     13.37     13.53
10/03 16:00      0.00      5.20         2     13.44     13.44
10/03 17:00      0.00      5.20         2     13.44     13.37
10/03 18:00      0.00      5.20         2     13.60     13.13
10/03 19:00      0.00      5.19         2     13.21     13.13
10/03 20:00      0.00      5.19         2     12.97     12.89
10/03 21:00      0.00      5.18         2     12.97     12.81
10/03 22:00      0.00      5.19         2     12.89     12.81
10/03 23:00      ----      ----      ----      ----      ----